STARLINK-5767, 55586

Orbit data source: Space-Track

STARLINK-5767, 55586 is a payload satellite owned by SpaceX/Seattle (US) in LEO that was launched on Sun, 12 Feb 2023 UTC via an FALCON 9 launch vehicle from the Air Force Eastern Test Range (AFETR). Payload-class satellites include a variety of spacecraft equipped with specific instruments for various scientific and technological missions. These include communications satellites like Starlink; space stations such as the ISS; scientific satellites like the Hubble; Earth observation satellites from companies like Planet Labs, Umbra, and HawkEye 360; GPS; miniature CubeSats for education and research; and military/defense satellites.

Loading next visibility...
Identifier
55586, 2023-020T
Orbit
LEO
Country
Flag of USUS
Related business
Manufacturer
SpaceX/Seattle
Mission
Operational Commercial Communications
Bus & Motor
STARLINK, Unknown motor
Mass
305 kg wet, ~290 kg dry
Launch date (UTC)
2023-02-12 (4 years ago)
Launch vehicle
FALCON 9
Launch site
Air Force Eastern Test Range (AFETR)
Object type
Payload
Rocket body
Debris
Shape & HBR
Box + 1 Pan, 10.1 m
Radar Cross Section
13.562 m², Large (>1 m²)

Expand to show TLE details & history
Last TLE update: 6 hours ago

TLE from 6 hours ago
0 STARLINK-5767
1 55586U 23020T   26264.28238649 -.00002332  00000-0 -75210-4 0  9999
2 55586  43.0083 340.8204 0002872 291.5878  68.4667 15.27583093198827
Epoch: 2026-09-21T06:46Z
TLE epoch observation values (Epoch: 2026-09-21T06:46:38.192Z)
Latitude
-0.00007°
Longitude
-121.00326°
Altitude
482.094 km
Speed
7.627 km/s
True Right ascension
22h 43m 16s
True Declination
0° 00' 00"
Sunlit
Object was in full shadow at epoch
Visualization orbit readout
Latitude
Unknown
Longitude
Unknown
Altitude
Unknown
Speed
Unknown
Apparent Right ascension
Unknown
Apparent Declination
Unknown
Sunlit
N/A
Visualization observer readout
Local Sidereal Time
06:00:26
Azimuth
Unknown
Elevation
Unknown
Doppler factor
Unknown
Orbital elements
Apogee altitude
486.955 km
Perigee altitude
483.013 km
Semi-major axis
6,863.121 km
Eccentricity
0.00029
Inclination
43.0083°
RAAN
340.8204°
Arg. of periapsis
291.5878°
True anomaly
68.49732°
Mean anomaly
68.4667°
Eccentric anomaly
68.48201°
Mean motion
3.81734 °/min
Orbital period
94.31 mins
BSTAR
-0.00007521
Loading maneuver chart data...
Computing Atmospheric mass density...
Loading historical data...
Loading historical data...
Loading historical data...
Loading historical data...
Loading historical data...
Loading historical data...
Loading historical data...

Documentation

Showing up to 5 results
|